Probability
0 0 0 0 0 0 0 0 0 0 0 0 0 0 1 2 6 12 19 25 29 28 25 23 20 15 12 11 10 9 8 6 5 6 6 5 4 2 1 1 2 1 1 0
0 0 0 0 0 0 0 0 0 0 0 0 0 0 2 4 8 11 15 19 22 22 21 19 16 13 10 8 8 10 11 9 7 8 7 6 4 3 1 3 4 2 1 1
0 0 0 0 0 0 0 0 0 0 0 0 0 0 2 5 8 8 9 12 14 15 16 14 11 9 6 5 6 11 15 14 11 9 7 5 4 3 2 5 6 3 1 0
0 0 0 0 0 0 0 0 0 0 0 0 0 0 2 6 9 7 5 7 10 11 10 8 7 5 4 4 7 15 22 21 15 11 7 5 4 3 4 7 7 4 1 0
0 0 0 0 0 0 0 0 0 0 0 0 0 0 2 5 7 5 3 4 6 6 4 3 3 3 3 3 7 18 29 29 22 14 9 7 5 4 5 7 7 4 1 0
0 0 0 0 0 0 0 0 0 0 0 0 0 0 1 2 3 3 3 3 2 2 1 1 1 3 4 6 10 22 36 38 28 18 12 8 6 4 4 5 4 2 1 0
0 0 0 0 0 0 0 0 0 0 0 0 0 0 0 0 0 1 3 2 1 0 0 0 1 4 9 12 16 28 40 39 28 17 11 8 6 4 3 2 1 1 0 0
0 0 0 0 0 0 0 0 0 0 0 0 0 0 0 0 0 0 1 1 0 0 0 0 2 6 11 15 20 30 38 34 22 12 10 8 5 3 1 1 0 0 0 0
0 0 0 0 0 0 0 0 0 0 0 0 0 0 0 0 0 0 0 0 0 1 0 0 2 6 10 13 18 27 32 26 14 9 8 6 3 1 0 0 0 0 0 0
0 0 0 0 0 0 0 0 0 0 0 0 0 0 0 0 0 0 0 0 0 0 0 0 1 5 8 11 14 19 20 15 8 5 5 3 1 0 0 0 0 0 0 0
0 0 0 0 0 0 0 0 0 0 0 0 0 0 0 0 0 0 0 0 0 0 0 0 1 3 5 8 10 11 9 7 4 2 1 0 0 0 0 0 0 0 0 0
0 0 0 0 0 0 0 0 0 0 0 0 0 0 0 0 0 0 0 0 0 0 0 0 1 3 5 6 6 5 4 3 2 1 0 0 0 0 0 0 0 0 0 0
0 0 0 0 0 0 0 0 0 0 0 0 0 0 0 0 0 0 0 0 0 1 2 4 8 10 9 5 3 2 1 1 1 0 0 1 1 1 0 0 0 0 0 0
0 0 0 0 0 0 0 0 0 0 0 0 0 0 0 0 0 0 0 0 2 4 6 12 22 25 16 8 4 1 0 0 0 0 1 2 3 2 2 1 2 1 1 0
0 0 0 0 0 0 0 0 0 0 0 0 0 0 0 0 0 0 0 1 3 6 10 19 32 35 26 16 8 3 1 0 0 0 1 3 4 5 4 3 3 3 3 2
0 0 0 0 0 0 0 0 0 0 0 0 0 0 0 0 0 1 1 1 3 5 10 20 31 38 35 25 14 6 4 3 3 2 2 3 5 6 5 4 4 5 6 6
0 0 0 0 0 0 0 0 0 0 0 1 1 0 0 0 0 1 1 1 2 3 7 15 27 38 40 30 19 11 9 8 8 6 4 5 6 6 6 6 6 8 9 9
0 0 1 0 0 0 0 0 0 0 1 2 2 2 1 1 1 1 1 0 1 1 3 9 20 31 35 29 21 17 13 12 11 9 7 6 5 5 7 9 11 13 13 13
1 1 1 0 0 0 0 0 0 1 2 4 3 3 4 3 1 0 0 0 0 0 1 4 9 19 29 31 26 22 16 13 11 10 9 8 6 6 9 13 17 21 20 18
1 2 2 0 0 0 0 0 0 1 4 5 3 3 4 3 1 0 1 1 2 2 4 6 9 19 36 45 41 33 24 18 15 14 13 13 13 12 14 19 25 26 22 18
2 3 2 1 0 2 3 2 2 5 7 5 2 1 2 3 3 2 3 5 7 9 11 17 25 38 54 63 59 51 41 33 28 24 23 23 22 18 17 26 35 32 23 16
2 3 3 2 3 7 9 7 7 10 8 3 1 0 1 3 5 7 10 15 18 20 23 32 48 63 72 75 72 67 61 53 43 37 36 35 32 25 23 32 41 37 26 20
1 2 3 5 9 14 12 8 7 7 5 2 0 0 2 5 10 16 22 28 33 34 35 44 62 77 82 80 77 75 73 65 53 46 45 45 42 36 34 37 37 31 25 20
1 1 3 8 14 16 12 7 4 3 2 2 2 2 5 11 19 29 36 41 45 46 47 56 69 79 83 79 76 76 75 68 57 50 47 46 42 39 42 42 35 26 23 21
1 1 6 14 19 17 13 7 3 2 2 3 4 5 7 12 21 30 36 40 44 46 49 56 65 72 75 75 73 72 70 66 57 49 44 39 31 31 39 42 34 24 20 19
1 2 9 20 24 19 12 6 3 2 1 2 4 6 7 10 15 21 25 30 35 39 42 47 56 62 66 70 71 69 66 63 57 48 41 32 24 27 35 37 28 17 12 11
Wind_Speed
12 11 10 8 8 8 5 2 2 5 6 4 3 9 9 10 7 6 8 9 10 10 10 10 10 11 11 9 7 6 6 4 2 1 0 1 1 2 1 1 4 2 2 3
12 10 11 9 8 7 5 5 5 7 7 4 2 4 5 5 3 4 9 9 9 10 10 9 9 10 10 9 7 6 6 5 3 2 1 1 1 2 2 1 2 2 2 3
11 8 6 7 8 6 3 4 8 8 5 1 4 2 2 1 2 3 6 10 11 12 12 11 9 9 10 10 9 8 7 6 4 1 1 1 1 2 2 1 1 3 2 2
9 8 7 8 7 6 4 7 8 7 3 1 1 2 4 4 5 6 6 9 11 11 12 11 10 9 9 9 9 6 6 5 4 2 1 2 2 2 2 1 1 2 1 2
10 8 8 8 7 8 5 4 10 14 9 3 5 4 4 9 8 10 10 11 11 12 12 12 11 10 9 9 8 7 6 5 3 2 2 2 3 3 3 3 3 2 3 3
12 10 7 7 6 5 7 5 10 11 7 6 10 6 5 8 9 11 12 13 12 12 12 11 11 10 8 7 7 8 8 6 4 3 2 1 2 2 3 4 4 3 2 2
9 9 7 7 7 3 7 4 2 1 1 8 11 4 6 7 9 11 13 13 12 12 12 11 10 10 9 8 7 8 9 7 5 4 2 1 1 2 4 5 4 2 3 2
4 4 8 8 7 5 8 6 3 5 4 5 5 5 9 9 9 10 12 13 13 12 12 11 11 9 9 8 7 7 8 6 5 3 2 1 1 3 3 2 3 3 3 3
4 4 10 8 7 7 8 7 6 6 5 4 3 6 12 10 10 10 11 12 12 11 11 10 10 8 8 7 7 7 7 6 4 3 3 3 3 3 3 3 4 4 2 4
7 8 7 4 8 9 8 9 7 6 4 0 5 5 4 10 10 10 10 11 11 11 11 10 10 9 9 8 7 7 7 6 4 3 3 3 3 3 3 4 4 3 4 4
8 9 9 4 8 10 7 7 5 6 6 5 2 3 7 8 10 11 11 11 12 11 11 10 9 9 9 9 9 7 7 6 4 4 3 1 1 2 3 3 4 4 4 4
6 8 9 5 7 13 11 9 6 5 5 7 2 2 2 4 8 9 10 11 11 11 10 10 11 10 9 9 9 8 7 7 6 5 4 4 4 4 4 4 3 3 4 4
5 5 9 6 9 13 13 14 10 6 5 6 5 1 1 2 2 6 6 8 9 8 8 9 10 9 8 7 7 8 8 7 6 6 6 5 5 4 4 3 3 4 4 5
5 8 10 10 5 7 11 16 13 9 6 5 5 3 4 4 3 4 5 6 7 8 7 7 8 8 7 6 6 5 5 5 5 5 5 5 4 4 3 3 3 4 4 5
6 9 11 11 7 11 14 16 12 11 9 9 7 5 3 3 3 3 5 6 6 8 9 8 8 8 7 6 6 6 5 4 4 4 4 4 4 4 3 4 4 4 4 6
5 9 12 14 13 13 12 12 13 11 9 9 8 4 4 5 3 2 2 4 5 7 8 9 9 10 9 8 7 7 6 6 5 5 4 4 3 3 4 4 5 5 4 5
8 9 11 13 15 13 11 11 10 8 8 7 5 0 2 2 2 1 1 3 5 6 8 9 10 10 10 9 8 7 7 6 6 6 5 5 5 5 4 5 4 4 4 5
8 8 8 13 15 16 7 6 7 7 6 4 2 0 1 1 2 3 3 3 4 5 7 8 9 10 10 10 10 8 8 7 7 7 7 6 5 5 4 4 4 4 4 4
5 6 10 11 14 13 7 3 4 6 7 8 4 4 4 4 2 2 4 3 3 4 5 6 8 10 11 11 11 10 9 9 8 8 7 7 6 5 4 4 4 4 4 5
6 6 9 12 14 13 3 4 2 3 3 9 10 9 10 6 4 3 3 2 2 2 3 5 7 7 9 10 10 11 10 9 9 8 7 6 5 4 4 4 4 5 4 6
7 9 12 13 12 5 5 2 3 2 1 7 7 6 6 5 5 5 3 1 1 1 2 4 5 5 7 8 9 9 9 9 8 7 6 5 5 5 5 6 5 5 6 7
10 9 9 8 8 3 9 5 4 3 4 6 6 5 6 5 6 6 5 3 1 0 1 2 3 4 6 7 7 7 7 5 5 5 5 5 5 6 6 5 5 5 6 7
5 4 3 2 1 3 4 4 2 2 3 5 7 7 7 7 7 7 6 6 4 2 1 1 2 3 5 6 6 7 6 5 5 5 5 5 5 5 5 5 7 7 7 8
4 6 5 3 6 6 5 6 3 2 4 7 8 10 11 10 10 11 11 10 8 7 5 3 1 1 3 4 6 6 5 6 6 6 6 6 6 7 7 7 7 8 7 7
4 2 2 1 6 7 7 5 4 6 8 11 11 13 13 12 13 13 11 11 10 10 9 8 6 3 1 1 2 4 5 5 6 7 6 7 8 9 8 8 8 9 7 7
4 2 2 2 4 4 6 4 5 8 9 11 12 13 14 14 13 13 11 11 11 11 9 9 9 7 5 3 1 2 3 4 5 6 7 7 8 8 8 7 8 14 14 13
Wind_Direction
252 248 273 281 277 299 346 16 257 260 272 289 144 142 189 218 215 166 143 137 138 141 143 143 146 144 140 139 141 145 139 135 158 123 9 14 29 359 357 94 104 72 28 16
256 260 277 299 306 312 6 344 306 277 266 282 125 124 186 203 177 175 152 150 152 151 148 148 157 153 150 152 154 155 158 163 185 145 138 199 289 288 274 53 117 103 51 359
282 287 282 291 299 314 340 293 263 255 250 13 35 20 288 258 246 196 159 162 167 163 157 161 169 167 164 167 172 177 172 164 180 180 238 284 256 269 298 24 69 75 32 343
295 298 300 296 300 295 289 262 274 291 299 339 195 245 242 200 226 199 183 174 170 167 160 167 177 179 179 175 176 172 161 162 164 191 262 299 299 308 329 348 48 50 310 269
279 281 283 285 290 297 306 337 10 16 7 337 271 238 180 176 196 190 190 183 176 172 170 174 180 183 184 178 169 164 155 154 164 199 237 269 312 338 357 3 345 325 275 235
287 293 290 301 296 307 320 11 32 28 8 305 249 232 163 170 177 179 183 178 176 175 176 178 184 178 179 176 169 160 149 156 168 194 232 249 305 329 327 319 304 295 289 253
272 286 299 288 278 288 292 299 7 4 227 251 242 212 121 132 152 164 167 170 175 178 178 180 185 177 176 180 170 153 147 157 170 192 204 236 334 317 272 259 276 304 309 325
301 315 271 255 267 266 264 268 267 281 243 222 227 128 127 125 126 141 154 163 173 179 182 183 183 179 174 174 167 156 148 152 165 186 175 157 272 276 287 359 354 322 303 312
298 262 251 255 274 279 284 289 291 283 317 1 337 107 121 136 139 148 154 161 174 180 181 180 174 171 164 163 156 147 136 145 166 187 162 190 214 245 295 315 280 276 305 303
282 288 275 241 261 244 261 297 307 310 314 244 359 352 155 157 153 156 163 168 174 180 181 176 168 166 158 152 138 134 137 151 167 192 206 219 190 217 230 255 285 301 295 293
280 290 291 294 297 297 256 256 284 306 317 334 78 278 193 179 165 168 174 177 177 182 182 173 165 157 153 152 146 147 148 157 176 201 200 240 254 267 266 254 256 265 275 284
302 294 301 318 347 334 308 281 260 277 309 307 331 117 124 138 159 169 177 177 178 178 176 166 158 151 156 162 160 159 164 176 183 189 186 202 222 238 250 263 271 280 280 281
335 309 294 306 7 347 317 298 287 269 276 289 315 124 331 308 195 164 165 166 165 162 166 161 151 152 163 169 166 167 176 186 184 181 185 200 214 230 236 254 268 274 280 281
293 279 285 291 215 207 263 276 276 270 271 290 302 292 218 229 209 165 160 158 159 158 161 161 147 151 160 161 158 169 185 182 184 184 192 202 213 231 242 252 259 267 275 278
287 282 288 289 253 210 230 254 264 266 272 281 281 278 250 177 163 154 162 164 167 163 165 166 155 153 159 162 164 175 185 181 186 188 206 211 213 221 233 244 252 261 267 277
282 288 295 290 275 262 256 260 261 265 270 272 279 295 65 85 95 117 145 168 172 173 177 176 170 167 172 176 179 182 187 184 176 194 219 221 220 233 240 244 246 249 257 269
271 275 281 286 292 290 279 286 285 290 286 281 279 336 84 121 116 140 197 200 182 186 187 181 178 175 174 179 182 186 185 184 183 192 212 220 219 230 237 253 263 270 274 274
259 271 275 279 283 278 280 311 297 274 268 279 281 220 130 87 152 200 221 224 187 190 192 182 179 174 175 179 182 186 185 185 193 199 209 215 219 232 235 243 256 262 267 271
283 263 265 272 276 275 279 314 325 341 340 349 15 17 26 37 331 244 175 172 170 197 184 173 182 183 177 181 179 180 191 189 198 205 207 212 217 226 234 247 255 262 265 268
279 261 260 262 270 283 325 72 48 351 321 9 34 29 9 6 338 9 93 150 189 196 175 175 187 183 170 174 173 178 193 196 203 209 204 205 206 218 233 243 251 259 261 266
242 242 249 260 268 285 30 110 171 203 37 358 21 17 350 13 338 318 306 154 159 168 184 178 182 180 169 166 169 183 196 202 203 203 199 201 204 212 224 233 235 243 256 263
233 235 243 261 274 306 8 11 44 23 350 334 351 356 352 346 309 318 337 1 45 318 216 197 179 177 160 162 172 190 204 204 199 199 203 207 211 230 238 227 233 242 253 262
267 281 270 227 192 116 73 62 27 356 340 351 352 355 349 337 338 356 6 12 20 23 331 243 187 175 161 162 174 199 204 200 204 205 212 218 222 224 233 240 244 246 245 250
333 350 341 27 90 121 133 130 114 53 15 11 17 17 18 13 11 20 25 22 18 13 6 -0 357 179 165 172 189 201 196 194 204 213 218 222 228 233 230 231 238 245 249 252
283 253 270 98 124 117 77 63 61 57 44 39 37 38 35 31 31 32 33 26 20 19 15 11 6 359 8 180 199 208 201 198 212 222 228 233 240 245 241 232 233 239 244 246
337 348 319 96 122 112 112 86 64 70 66 57 48 45 41 36 35 36 33 27 23 20 18 14 6 0 355 346 280 246 222 217 227 238 240 245 248 249 246 241 241 231 231 234